Temperature
11 12 12 12 12 13 13 13 13 13 14 14 15 15 15 15 15 15 15 15 15 15 16 16 16 16 16 16 16 16 17 17 17 17 17 17 17 17
11 11 11 12 12 12 12 13 13 13 13 14 14 14 14 14 14 14 15 15 15 15 15 16 16 16 16 16 16 16 17 17 17 17 17 17 17 17
11 11 11 11 11 11 12 12 12 12 12 13 13 14 14 14 14 14 14 14 15 15 15 15 16 16 16 16 16 16 16 16 16 16 17 16 16 16
10 10 11 11 11 11 11 11 11 12 12 12 12 13 13 13 13 14 14 14 14 15 15 15 15 15 16 16 16 16 16 16 16 16 16 16 16 16
10 10 10 10 10 10 11 11 11 11 11 12 12 12 13 13 13 13 13 14 14 14 14 15 15 15 16 16 16 16 16 16 16 16 16 16 16 16
10 10 10 10 10 10 10 10 10 11 11 11 11 12 12 12 13 13 13 13 14 14 14 14 15 15 15 15 16 16 16 16 16 16 16 16 16 16
10 9 9 10 10 10 10 10 10 10 10 10 11 11 12 12 12 13 13 13 13 14 14 14 14 14 15 15 15 16 16 16 16 16 16 16 16 16
10 9 9 9 10 10 10 10 10 10 10 10 10 10 11 11 12 12 12 12 13 13 13 14 14 14 14 15 15 15 16 16 16 16 16 16 16 16
9 9 9 9 9 9 10 9 10 10 10 10 10 10 11 11 11 11 11 12 12 13 13 13 13 13 14 14 15 15 15 15 15 16 16 16 16 16
9 9 9 9 9 9 9 9 9 9 9 9 10 10 10 11 11 11 11 11 11 12 12 12 13 13 13 14 14 14 15 15 15 15 15 15 15 15
9 9 9 9 9 9 9 9 9 9 9 9 9 10 10 10 10 10 10 10 11 11 12 12 12 12 13 13 14 14 14 15 15 15 15 15 15 15
9 9 9 9 9 9 9 9 9 9 9 9 9 9 9 10 10 10 10 10 10 11 11 12 12 12 12 12 13 13 14 14 14 14 15 15 15 15
8 8 8 9 8 8 8 8 8 8 8 8 9 9 9 9 10 10 10 10 10 10 11 11 12 12 12 12 12 13 13 14 14 14 14 14 14 14
9 8 8 8 8 8 8 8 8 8 8 8 8 8 9 9 10 10 10 10 10 11 11 11 11 11 12 12 12 12 12 13 13 13 13 13 13 14
8 8 8 8 8 8 8 8 8 8 8 8 8 8 9 9 9 10 10 10 10 10 11 11 11 11 12 12 12 12 12 12 12 12 13 13 13 13
8 8 8 8 8 8 8 8 8 8 8 8 8 8 8 9 9 9 10 10 10 10 10 11 11 11 11 11 12 12 12 12 12 12 12 12 12 12
8 8 8 8 8 8 8 8 8 8 8 8 8 8 8 8 9 9 9 10 10 10 10 10 10 11 11 11 11 11 12 11 12 12 12 12 12 12
8 8 8 8 8 8 8 8 8 8 8 8 8 8 8 8 9 9 9 9 9 10 10 10 10 10 10 10 11 11 11 11 11 11 11 11 11 11
8 8 8 8 8 8 8 8 8 8 8 8 8 8 8 8 8 9 9 9 9 10 10 10 10 10 10 10 10 11 11 11 11 11 11 11 11 11
9 8 8 8 8 8 8 8 8 8 8 8 8 8 8 8 8 8 9 9 9 9 9 10 10 10 10 10 10 10 10 11 11 11 10 10 11 11
9 9 9 8 8 8 8 8 8 8 8 8 8 8 8 8 8 8 9 9 9 9 9 10 10 10 10 10 10 10 10 10 11 11 11 10 10 10
9 9 9 9 9 8 8 8 8 8 8 8 8 8 8 8 8 8 9 9 9 9 9 10 10 10 10 10 10 10 10 10 10 10 10 10 10 10
9 9 9 9 9 8 8 8 8 8 8 8 8 8 8 8 8 9 9 9 9 9 9 9 10 10 10 10 10 10 10 9 9 9 9 10 10 10
Wind_Speed
7 7 6 6 5 5 4 4 5 6 6 5 2 2 2 3 6 8 9 12 17 20 23 25 26 28 29 30 31 31 31 30 30 30 30 29 28 27
6 7 7 6 6 5 5 5 5 6 6 5 4 4 3 4 6 7 9 11 15 19 22 24 25 27 28 29 30 31 31 31 31 31 30 30 29 28
8 8 7 7 6 6 5 5 5 5 7 6 5 4 4 5 4 6 9 10 12 19 22 23 24 26 28 29 30 30 31 31 31 30 30 29 29 28
8 8 8 8 7 6 6 7 6 6 6 8 6 6 7 6 6 6 6 9 10 15 21 23 24 25 27 28 29 29 30 30 30 30 29 28 28 27
8 8 8 8 8 7 7 7 7 8 6 7 7 6 5 6 6 6 7 5 8 11 16 21 22 23 25 26 27 28 28 29 29 29 28 27 26 26
8 8 8 8 9 8 8 8 8 7 7 7 7 6 6 6 5 6 6 5 5 6 8 12 16 20 22 24 25 26 27 27 27 27 27 26 26 25
8 8 10 11 11 9 9 6 6 6 6 6 7 6 6 4 5 4 5 4 4 4 3 5 6 8 11 17 20 22 24 25 26 26 26 25 24 23
9 9 10 11 13 14 14 13 11 9 8 7 7 7 7 5 5 5 4 3 3 2 3 4 5 6 7 10 16 20 22 23 24 24 24 24 22 21
9 9 11 12 10 7 9 13 14 15 14 10 10 9 8 7 6 5 4 5 4 3 2 3 3 4 4 8 15 19 21 22 23 23 23 22 22 21
10 10 10 9 11 8 8 8 8 9 11 11 10 11 10 8 7 7 6 5 5 4 4 3 3 3 3 4 12 17 19 20 21 21 22 21 21 20
10 11 10 9 9 8 7 7 8 8 11 13 13 13 14 13 8 5 5 5 5 4 4 3 3 2 2 2 5 13 16 18 18 19 21 21 20 19
8 8 9 8 8 7 6 7 8 8 8 9 8 9 10 11 12 9 8 7 5 4 4 4 4 3 2 2 3 6 9 12 16 18 20 21 22 15
8 7 5 3 4 7 8 7 9 8 7 8 8 7 7 7 8 9 9 8 7 6 4 5 4 4 3 3 3 4 6 6 8 10 17 20 21 16
8 7 4 3 5 8 8 10 11 9 8 8 8 7 7 7 7 8 8 8 7 8 6 5 4 5 5 4 3 4 5 6 7 7 10 15 16 15
8 10 11 12 11 10 14 15 11 8 9 9 9 8 7 7 6 6 6 6 6 7 8 6 6 5 5 5 5 6 5 5 7 8 9 9 8 9
8 10 12 14 13 13 12 10 9 9 9 9 8 7 6 6 6 5 6 6 6 6 6 8 7 7 5 4 6 7 6 7 8 9 9 8 8 11
5 7 9 9 8 8 8 8 8 8 9 9 8 7 6 6 6 5 5 6 6 6 6 5 6 6 6 6 6 8 8 7 8 9 9 8 7 8
5 8 9 9 10 9 8 8 8 8 8 8 7 7 7 7 6 5 5 6 7 7 7 6 6 5 3 3 6 8 8 8 8 9 8 8 8 7
6 10 10 10 9 9 8 8 7 7 6 7 7 7 7 6 6 5 6 6 6 7 7 7 7 8 8 6 5 8 8 9 9 8 8 6 7 8
8 10 10 9 8 8 7 7 6 6 6 6 7 7 7 6 6 5 6 6 6 6 6 6 7 8 8 7 5 5 10 11 10 9 7 5 5 7
9 8 8 7 7 7 6 6 6 5 6 6 6 6 6 6 6 6 6 8 7 6 7 7 7 9 5 5 6 5 5 8 10 9 9 7 6 7
8 7 6 6 6 6 6 5 5 5 5 5 5 5 5 5 6 7 6 6 6 7 7 6 7 7 5 6 7 8 7 6 7 11 9 5 6 9
6 6 6 6 5 5 5 5 5 5 5 4 4 5 5 5 5 5 5 6 6 6 6 7 7 7 7 7 7 7 10 9 7 7 4 8 5 6
Wind_Direction
277 275 265 269 269 268 263 254 258 271 275 277 277 252 270 257 221 221 228 227 225 225 225 223 220 217 215 213 213 214 215 214 214 216 216 218 220 223
279 275 277 273 272 270 265 260 252 255 266 276 278 273 274 276 248 233 235 234 229 226 225 224 222 219 217 215 215 215 215 215 215 215 217 218 219 222
281 280 276 273 273 276 275 268 260 256 262 269 272 280 271 266 264 252 247 238 234 226 223 223 223 221 218 217 216 215 215 215 214 215 216 217 218 220
284 284 285 281 272 268 269 270 265 258 256 265 270 274 273 262 252 245 248 245 237 232 223 221 222 221 219 217 216 216 215 214 213 213 214 215 216 217
285 282 281 280 279 269 264 266 269 270 261 260 264 263 268 267 262 256 252 248 247 238 224 221 220 219 217 216 214 213 213 212 211 211 212 213 214 216
281 279 276 273 271 271 269 260 262 267 270 267 263 260 259 262 259 250 247 237 242 242 230 217 215 215 214 213 212 210 209 208 208 208 209 210 211 213
291 284 277 274 271 267 271 272 277 276 277 277 273 271 262 259 262 250 244 242 244 227 225 209 194 200 206 209 208 206 205 204 205 205 204 205 206 208
288 286 284 276 265 252 247 247 246 253 260 266 273 274 277 277 288 273 256 245 254 220 203 226 199 197 195 196 200 198 199 200 200 199 199 199 200 202
280 281 282 284 293 280 261 248 244 243 240 246 258 266 272 275 287 284 274 256 249 227 202 231 219 212 193 190 188 190 191 193 194 194 193 194 195 196
270 269 269 273 280 281 282 274 262 251 242 239 242 250 256 258 258 259 258 266 256 231 210 228 213 208 184 167 183 183 186 187 188 188 188 188 188 189
271 272 270 268 264 259 264 269 271 271 267 254 239 238 239 241 237 247 248 245 248 235 213 211 202 191 181 171 169 176 177 180 181 183 183 182 180 177
281 276 272 267 258 246 250 263 269 272 281 286 274 256 244 240 231 225 230 236 237 240 211 193 186 173 177 169 166 162 166 173 176 177 177 174 169 166
290 292 305 316 275 258 251 256 263 275 282 278 274 266 248 237 233 226 220 224 227 239 207 184 187 180 172 161 161 169 166 163 165 169 173 172 171 168
280 288 295 304 289 279 264 258 261 267 267 265 262 260 250 240 235 227 218 216 221 226 217 200 195 186 173 168 164 161 167 164 161 161 166 171 174 171
268 282 290 283 276 269 255 251 252 251 252 254 254 253 250 243 236 230 223 219 224 224 221 211 202 190 185 178 166 163 162 168 167 162 163 168 168 164
266 284 281 271 263 260 264 254 239 239 244 249 251 252 249 244 238 231 223 214 214 221 217 208 203 192 191 182 167 168 165 166 168 164 160 165 169 172
313 292 285 281 274 262 256 251 244 235 237 242 247 250 248 242 239 232 221 216 214 211 209 203 200 194 188 176 173 172 165 161 164 163 160 165 172 172
285 277 277 276 274 272 265 258 249 241 236 237 239 239 238 234 232 232 223 217 216 210 203 193 179 172 175 197 182 172 168 165 164 166 163 164 171 171
259 267 268 269 270 271 266 262 256 246 238 235 234 234 231 229 227 225 226 225 219 209 201 192 186 182 185 190 184 179 170 163 163 170 172 164 168 169
251 261 266 268 268 269 266 262 258 249 242 237 234 231 226 222 223 222 224 224 215 206 200 194 190 188 191 186 169 168 172 165 167 170 167 146 125 126
269 267 267 269 272 269 264 261 258 251 243 236 230 227 225 222 222 223 221 220 215 206 200 199 194 179 169 159 150 145 153 165 168 164 160 157 154 154
270 276 277 275 273 269 263 258 255 250 242 236 233 226 220 220 224 225 220 214 209 206 203 187 172 170 175 175 168 155 148 140 116 117 116 121 167 173
277 279 282 285 279 272 268 261 254 243 232 228 231 228 223 217 218 221 223 218 211 201 188 177 173 174 179 174 167 156 152 151 146 131 78 37 83 125
Height
1506 1506 1506 1506 1507 1507 1507 1508 1508 1507 1506 1506 1506 1506 1506 1506 1506 1507 1508 1509 1511 1514 1517 1520 1524 1528 1532 1537 1542 1547 1552 1556 1560 1565 1569 1572 1576 1580
1502 1502 1502 1502 1502 1502 1502 1503 1503 1503 1502 1502 1502 1502 1502 1501 1501 1502 1502 1504 1505 1507 1509 1513 1516 1520 1524 1529 1534 1539 1544 1549 1554 1558 1562 1566 1570 1573
1498 1497 1497 1497 1497 1497 1497 1498 1498 1498 1497 1497 1498 1498 1498 1497 1497 1497 1497 1498 1499 1500 1503 1506 1509 1512 1516 1521 1526 1531 1537 1542 1546 1551 1555 1559 1563 1567
1493 1493 1492 1492 1492 1492 1492 1492 1493 1493 1493 1492 1492 1493 1493 1493 1492 1492 1492 1492 1493 1494 1496 1498 1501 1505 1509 1513 1518 1524 1529 1534 1539 1544 1548 1553 1557 1560
1489 1488 1488 1487 1487 1487 1487 1487 1487 1488 1488 1487 1487 1487 1487 1488 1487 1487 1487 1487 1487 1488 1489 1491 1494 1497 1501 1505 1510 1515 1521 1526 1531 1536 1541 1545 1550 1554
1484 1483 1483 1482 1482 1482 1481 1481 1482 1482 1482 1482 1482 1482 1482 1482 1482 1482 1481 1482 1482 1483 1483 1485 1488 1491 1494 1498 1503 1508 1513 1518 1523 1528 1533 1538 1542 1547
1479 1478 1477 1477 1476 1476 1476 1476 1476 1476 1476 1476 1476 1477 1477 1477 1477 1477 1476 1476 1477 1478 1478 1479 1482 1484 1487 1491 1495 1499 1504 1510 1515 1520 1525 1530 1535 1540
1473 1472 1472 1471 1471 1470 1470 1470 1470 1470 1470 1471 1471 1471 1471 1472 1472 1472 1472 1472 1472 1473 1473 1475 1476 1478 1481 1484 1488 1492 1497 1502 1507 1513 1518 1523 1528 1533
1468 1467 1466 1466 1466 1465 1464 1464 1464 1464 1465 1465 1464 1465 1466 1467 1467 1467 1466 1467 1467 1468 1469 1469 1472 1473 1476 1479 1482 1486 1490 1495 1500 1505 1511 1516 1521 1526
1463 1462 1461 1460 1459 1459 1458 1458 1457 1458 1458 1458 1458 1458 1460 1461 1461 1462 1462 1462 1462 1464 1465 1465 1467 1469 1471 1474 1477 1480 1484 1489 1494 1499 1504 1509 1514 1519
1459 1457 1456 1455 1454 1453 1453 1452 1451 1452 1452 1452 1452 1452 1453 1454 1455 1456 1456 1457 1457 1458 1460 1461 1462 1464 1466 1468 1471 1474 1478 1483 1488 1493 1498 1503 1508 1513
1454 1453 1452 1450 1449 1448 1448 1447 1446 1446 1446 1446 1446 1446 1446 1447 1448 1449 1450 1452 1453 1454 1455 1457 1458 1460 1463 1464 1467 1470 1473 1477 1482 1487 1492 1497 1502 1506
1450 1448 1447 1445 1444 1443 1442 1442 1441 1440 1440 1439 1439 1439 1439 1440 1441 1442 1444 1445 1447 1448 1451 1453 1454 1456 1458 1460 1462 1465 1469 1472 1477 1481 1486 1491 1496 1501
1445 1443 1442 1440 1439 1437 1436 1436 1435 1434 1434 1433 1433 1433 1433 1434 1435 1436 1438 1439 1441 1443 1446 1448 1450 1452 1454 1455 1458 1461 1465 1468 1472 1476 1481 1486 1491 1495
1440 1438 1437 1435 1433 1431 1430 1429 1429 1428 1427 1427 1427 1427 1428 1429 1430 1431 1432 1434 1435 1437 1440 1442 1445 1447 1449 1451 1453 1456 1460 1464 1468 1472 1477 1481 1485 1490
1435 1433 1431 1429 1427 1425 1424 1423 1422 1422 1421 1421 1421 1422 1423 1424 1424 1426 1427 1428 1430 1431 1434 1437 1439 1442 1445 1447 1450 1453 1456 1459 1463 1468 1473 1478 1482 1487
1430 1427 1425 1423 1421 1419 1418 1417 1416 1416 1415 1415 1416 1416 1417 1418 1419 1420 1422 1423 1424 1426 1428 1431 1434 1437 1441 1443 1446 1449 1452 1456 1460 1464 1469 1474 1478 1483
1425 1422 1419 1417 1415 1414 1412 1411 1410 1410 1410 1410 1410 1411 1412 1413 1414 1415 1417 1418 1419 1421 1423 1426 1430 1433 1437 1440 1442 1445 1448 1452 1457 1461 1466 1470 1475 1480
1420 1417 1414 1412 1410 1409 1407 1405 1405 1404 1404 1404 1405 1406 1407 1408 1409 1411 1412 1413 1414 1416 1419 1422 1425 1428 1431 1434 1437 1441 1444 1448 1453 1458 1463 1467 1472 1477
1415 1412 1410 1408 1405 1404 1402 1401 1399 1399 1399 1399 1400 1401 1402 1403 1404 1406 1407 1408 1410 1412 1415 1418 1420 1423 1426 1430 1434 1437 1442 1445 1450 1455 1459 1465 1470 1475
1410 1408 1406 1403 1401 1399 1397 1396 1395 1394 1394 1394 1395 1396 1397 1398 1400 1401 1403 1404 1406 1409 1411 1413 1416 1420 1424 1428 1431 1434 1439 1443 1447 1451 1456 1461 1466 1470
1406 1403 1401 1399 1396 1395 1393 1391 1390 1390 1389 1390 1390 1392 1393 1394 1396 1397 1399 1401 1403 1405 1407 1410 1414 1417 1421 1424 1426 1430 1435 1440 1445 1450 1455 1459 1461 1465
1401 1399 1397 1395 1393 1391 1389 1388 1387 1386 1386 1386 1387 1388 1389 1390 1392 1394 1395 1397 1400 1402 1405 1408 1411 1414 1417 1421 1424 1428 1432 1436 1441 1446 1451 1456 1460 1464